Location: Lecco
(45.8566°N, 9.3977°E)
Time: 21:46:19
(UTC+02:00)

Vanguard 1 Rocket - Pass Details

Date: 17 August 2020
Orbit: 655 x 4221 km, 34.3° (Epoch: 30 September)

Event Time Altitude Azimuth Distance (km) Brightness Sun altitude
Exits shadow 04:37:50 14° 202° (SSW) 4,909 10.6 -16.9°
Maximum altitude 04:46:03 24° 162° (SSE) 3,250 10.0 -15.8°
Drops below altitude 10° 04:52:50 10° 112° (ESE) 3,397 10.7 -14.8°
Sets 04:55:44 0° 98° (E) 4,001 11.4 -14.4°
